14-05-2022, 00:00:06,    255,    0.0,    7.9,   0.00,   0.00, 1017.3,   83.5, -999.0
14-05-2022, 00:00:16,    255,    0.0,    7.9,   0.00,   0.00, 1017.2,   83.5, -999.0
14-05-2022, 00:00:26,    255,    0.0,    7.9,   0.00,   0.00, 1017.3,   83.5, -999.0
14-05-2022, 00:00:36,    255,    0.1,    8.0,   0.00,   0.00, 1017.3,   83.6, -999.0
14-05-2022, 00:00:46,    256,    0.0,    7.9,   0.00,   0.00, 1017.2,   83.5, -999.0
14-05-2022, 00:00:56,    256,    0.2,    8.0,   0.00,   0.00, 1017.3,   83.9, -999.0
14-05-2022, 00:01:05,    256,    0.1,    8.0,   0.00,   0.00, 1017.3,   83.9, -999.0
14-05-2022, 00:01:16,    256,    0.0,    8.0,   0.00,   0.00, 1017.3,   83.8, -999.0
14-05-2022, 00:01:26,    255,    0.0,    7.9,   0.00,   0.00, 1017.2,   83.8, -999.0
14-05-2022, 00:01:35,    256,    0.0,    7.7,   0.00,   0.00, 1017.3,   83.8, -999.0
14-05-2022, 00:01:45,    256,    0.0,    7.9,   0.00,   0.00, 1017.3,   83.8, -999.0
14-05-2022, 00:01:56,    255,    0.0,    7.9,   0.00,   0.00, 1017.3,   83.7, -999.0
14-05-2022, 00:02:05,    256,    0.0,    7.8,   0.00,   0.00, 1017.3,   83.6, -999.0
14-05-2022, 00:02:15,    256,    0.0,    7.9,   0.00,   0.00, 1017.2,   83.8, -999.0
14-05-2022, 00:02:26,    256,    0.0,    7.9,   0.00,   0.00, 1017.3,   83.8, -999.0
14-05-2022, 00:02:35,    256,    0.0,    7.9,   0.00,   0.00, 1017.3,   83.8, -999.0
14-05-2022, 00:02:45,    258,    0.3,    8.0,   0.00,   0.00, 1017.3,   84.1, -999.0
14-05-2022, 00:02:55,    257,    0.4,    8.0,   0.00,   0.00, 1017.4,   84.3, -999.0
14-05-2022, 00:03:05,    256,    0.1,    8.0,   0.00,   0.00, 1017.3,   83.9, -999.0
14-05-2022, 00:03:15,    257,    0.0,    7.9,   0.00,   0.00, 1017.3,   83.8, -999.0
14-05-2022, 00:03:25,    258,    0.7,    8.0,   0.00,   0.00, 1017.4,   84.1, -999.0
14-05-2022, 00:03:35,    259,    1.1,    8.0,   0.00,   0.00, 1017.4,   84.2, -999.0
14-05-2022, 00:03:45,    257,    0.4,    7.8,   0.00,   0.00, 1017.4,   84.1, -999.0
14-05-2022, 00:03:55,    254,    1.0,    7.9,   0.00,   0.00, 1017.4,   84.1, -999.0
14-05-2022, 00:04:05,    254,    1.1,    8.0,   0.00,   0.00, 1017.4,   84.1, -999.0
14-05-2022, 00:04:14,    241,    0.9,    8.0,   0.00,   0.00, 1017.4,   84.2, -999.0
14-05-2022, 00:04:25,    237,    0.0,    7.9,   0.00,   0.00, 1017.3,   83.9, -999.0
14-05-2022, 00:04:35,    237,    0.0,    7.9,   0.00,   0.00, 1017.3,   83.9, -999.0
14-05-2022, 00:04:44,    238,    0.0,    7.8,   0.00,   0.00, 1017.3,   83.8, -999.0
14-05-2022, 00:04:55,    238,    0.0,    7.8,   0.00,   0.00, 1017.2,   83.8, -999.0
14-05-2022, 00:05:05,    238,    0.0,    7.8,   0.00,   0.00, 1017.3,   83.9, -999.0
14-05-2022, 00:05:14,    237,    0.0,    7.8,   0.00,   0.00, 1017.3,   83.8, -999.0
14-05-2022, 00:05:24,    238,    0.7,    7.9,   0.00,   0.00, 1017.3,   84.1, -999.0
14-05-2022, 00:05:35,    238,    0.3,    7.9,   0.00,   0.00, 1017.3,   84.2, -999.0
14-05-2022, 00:05:44,    240,    0.8,    7.9,   0.00,   0.00, 1017.3,   84.3, -999.0
14-05-2022, 00:05:54,    240,    0.1,    7.9,   0.00,   0.00, 1017.3,   84.2, -999.0
14-05-2022, 00:06:04,    240,    0.0,    7.8,   0.00,   0.00, 1017.3,   83.9, -999.0
14-05-2022, 00:06:14,    241,    0.0,    7.8,   0.00,   0.00, 1017.3,   83.9, -999.0
14-05-2022, 00:06:24,    240,    0.0,    7.8,   0.00,   0.00, 1017.3,   84.0, -999.0
14-05-2022, 00:06:34,    239,    0.3,    7.9,   0.00,   0.00, 1017.3,   84.4, -999.0
14-05-2022, 00:06:44,    239,    0.1,    7.9,   0.00,   0.00, 1017.3,   84.1, -999.0
14-05-2022, 00:06:54,    239,    0.0,    7.8,   0.00,   0.00, 1017.3,   84.1, -999.0
14-05-2022, 00:07:04,    239,    0.0,    7.8,   0.00,   0.00, 1017.2,   84.1, -999.0
14-05-2022, 00:07:14,    239,    0.0,    7.8,   0.00,   0.00, 1017.2,   84.2, -999.0
14-05-2022, 00:07:24,    240,    0.0,    7.8,   0.00,   0.00, 1017.2,   84.2, -999.0
14-05-2022, 00:07:34,    242,    0.9,    7.9,   0.00,   0.00, 1017.3,   84.6, -999.0
14-05-2022, 00:07:44,    240,    0.4,    8.0,   0.00,   0.00, 1017.3,   84.6, -999.0
14-05-2022, 00:07:53,    243,    0.8,    7.9,   0.00,   0.00, 1017.3,   84.6, -999.0
14-05-2022, 00:08:04,    243,    0.2,    7.9,   0.00,   0.00, 1017.2,   84.4, -999.0
14-05-2022, 00:08:14,    244,    0.0,    7.9,   0.00,   0.00, 1017.2,   84.2, -999.0
14-05-2022, 00:08:23,    244,    0.0,    7.8,   0.00,   0.00, 1017.2,   84.3, -999.0
14-05-2022, 00:08:33,    244,    0.0,    7.8,   0.00,   0.00, 1017.2,   84.3, -999.0
14-05-2022, 00:08:44,    244,    0.0,    7.8,   0.00,   0.00, 1017.2,   84.2, -999.0
14-05-2022, 00:08:53,    244,    0.0,    7.8,   0.00,   0.00, 1017.2,   84.2, -999.0
14-05-2022, 00:09:03,    244,    0.0,    7.9,   0.00,   0.00, 1017.2,   84.2, -999.0
14-05-2022, 00:09:13,    244,    0.0,    7.9,   0.00,   0.00, 1017.2,   84.1, -999.0
14-05-2022, 00:09:23,    244,    0.0,    7.8,   0.00,   0.00, 1017.2,   84.1, -999.0
14-05-2022, 00:09:33,    247,    0.1,    7.8,   0.00,   0.00, 1017.2,   84.2, -999.0
14-05-2022, 00:09:43,    255,    0.7,    7.9,   0.00,   0.00, 1017.3,   84.6, -999.0
14-05-2022, 00:09:53,    251,    0.6,    7.9,   0.00,   0.00, 1017.3,   84.6, -999.0
14-05-2022, 00:10:03,    250,    0.0,    7.9,   0.00,   0.00, 1017.2,   84.3, -999.0
14-05-2022, 00:10:13,    250,    0.0,    7.8,   0.00,   0.00, 1017.2,   84.2, -999.0
14-05-2022, 00:10:23,    251,    0.1,    7.9,   0.00,   0.00, 1017.2,   84.4, -999.0
14-05-2022, 00:10:33,    252,    0.4,    7.9,   0.00,   0.00, 1017.3,   84.5, -999.0
14-05-2022, 00:10:43,    253,    0.6,    7.9,   0.00,   0.00, 1017.3,   84.6, -999.0
14-05-2022, 00:10:53,    252,    0.0,    7.8,   0.00,   0.00, 1017.2,   84.3, -999.0
14-05-2022, 00:11:03,    253,    0.0,    7.8,   0.00,   0.00, 1017.2,   84.2, -999.0
14-05-2022, 00:11:13,    253,    0.0,    7.8,   0.00,   0.00, 1017.3,   84.3, -999.0
14-05-2022, 00:11:23,    253,    0.0,    7.8,   0.00,   0.00, 1017.2,   84.2, -999.0
14-05-2022, 00:11:32,    253,    0.2,    7.9,   0.00,   0.00, 1017.3,   84.7, -999.0
14-05-2022, 00:11:42,    254,    0.0,    7.8,   0.00,   0.00, 1017.2,   84.2, -999.0
14-05-2022, 00:11:53,    253,    0.0,    7.8,   0.00,   0.00, 1017.3,   84.2, -999.0
14-05-2022, 00:12:02,    253,    0.0,    7.8,   0.00,   0.00, 1017.2,   84.2, -999.0
14-05-2022, 00:12:12,    253,    0.0,    7.7,   0.00,   0.00, 1017.3,   84.3, -999.0
14-05-2022, 00:12:22,    254,    0.3,    7.8,   0.00,   0.00, 1017.3,   84.7, -999.0
14-05-2022, 00:12:32,    255,    0.3,    7.8,   0.00,   0.00, 1017.3,   84.6, -999.0
14-05-2022, 00:12:42,    255,    0.2,    7.8,   0.00,   0.00, 1017.3,   84.6, -999.0
14-05-2022, 00:12:52,    254,    0.0,    7.8,   0.00,   0.00, 1017.3,   84.3, -999.0
14-05-2022, 00:13:02,    255,    0.0,    7.8,   0.00,   0.00, 1017.3,   84.3, -999.0
14-05-2022, 00:13:12,    254,    0.0,    7.7,   0.00,   0.00, 1017.3,   84.3, -999.0
14-05-2022, 00:13:22,    255,    0.0,    7.7,   0.00,   0.00, 1017.3,   84.3, -999.0
14-05-2022, 00:13:32,    255,    0.0,    7.8,   0.00,   0.00, 1017.3,   84.5, -999.0
14-05-2022, 00:13:42,    254,    0.0,    7.7,   0.00,   0.00, 1017.3,   84.4, -999.0
14-05-2022, 00:13:52,    254,    0.0,    7.7,   0.00,   0.00, 1017.3,   84.4, -999.0
14-05-2022, 00:14:02,    254,    0.0,    7.7,   0.00,   0.00, 1017.3,   84.3, -999.0
14-05-2022, 00:14:12,    254,    0.0,    7.7,   0.00,   0.00, 1017.3,   84.4, -999.0
14-05-2022, 00:14:22,    254,    0.0,    7.7,   0.00,   0.00, 1017.3,   84.4, -999.0
14-05-2022, 00:14:32,    254,    0.0,    7.7,   0.00,   0.00, 1017.3,   84.3, -999.0
14-05-2022, 00:14:41,    254,    0.0,    7.7,   0.00,   0.00, 1017.3,   84.4, -999.0
14-05-2022, 00:14:51,    254,    0.0,    7.7,   0.00,   0.00, 1017.3,   84.4, -999.0
14-05-2022, 00:15:02,    255,    0.0,    7.7,   0.00,   0.00, 1017.3,   84.5, -999.0
14-05-2022, 00:15:11,    255,    0.4,    7.8,   0.00,   0.00, 1017.4,   84.8, -999.0
14-05-2022, 00:15:21,    255,    0.0,    7.7,   0.00,   0.00, 1017.3,   84.6, -999.0
14-05-2022, 00:15:32,    255,    0.0,    7.7,   0.00,   0.00, 1017.2,   84.5, -999.0
14-05-2022, 00:15:41,    255,    0.0,    7.7,   0.00,   0.00, 1017.2,   84.5, -999.0
14-05-2022, 00:15:51,    255,    0.0,    7.7,   0.00,   0.00, 1017.3,   84.5, -999.0
14-05-2022, 00:16:01,    255,    0.0,    7.7,   0.00,   0.00, 1017.2,   84.6, -999.0
14-05-2022, 00:16:11,    255,    0.0,    7.7,   0.00,   0.00, 1017.3,   84.5, -999.0
14-05-2022, 00:16:21,    255,    0.0,    7.6,   0.00,   0.00, 1017.3,   84.6, -999.0
14-05-2022, 00:16:31,    255,    0.0,    7.7,   0.00,   0.00, 1017.3,   84.7, -999.0
14-05-2022, 00:16:41,    255,    0.3,    7.8,   0.00,   0.00, 1017.3,   84.9, -999.0
14-05-2022, 00:16:51,    255,    0.3,    7.8,   0.00,   0.00, 1017.3,   85.0, -999.0
14-05-2022, 00:17:01,    255,    0.4,    7.7,   0.00,   0.00, 1017.3,   85.0, -999.0
14-05-2022, 00:17:11,    254,    0.0,    7.7,   0.00,   0.00, 1017.2,   84.6, -999.0
14-05-2022, 00:17:21,    255,    0.0,    7.6,   0.00,   0.00, 1017.2,   84.6, -999.0
14-05-2022, 00:17:31,    254,    0.0,    7.6,   0.00,   0.00, 1017.2,   84.6, -999.0
14-05-2022, 00:17:41,    255,    0.0,    7.7,   0.00,   0.00, 1017.2,   84.6, -999.0
14-05-2022, 00:17:50,    255,    0.2,    7.7,   0.00,   0.00, 1017.3,   85.0, -999.0
14-05-2022, 00:18:01,    269,    1.0,    7.7,   0.00,   0.00, 1017.3,   85.1, -999.0
14-05-2022, 00:18:11,    257,    0.4,    7.7,   0.00,   0.00, 1017.4,   85.1, -999.0
14-05-2022, 00:18:20,    236,    0.3,    7.7,   0.00,   0.00, 1017.3,   85.1, -999.0
14-05-2022, 00:18:30,    236,    0.0,    7.7,   0.00,   0.00, 1017.2,   84.8, -999.0
14-05-2022, 00:18:41,    237,    0.1,    7.7,   0.00,   0.00, 1017.3,   85.0, -999.0
14-05-2022, 00:18:50,    245,    0.7,    7.9,   0.00,   0.00, 1017.3,   85.2, -999.0
14-05-2022, 00:19:00,    249,    0.5,    7.7,   0.00,   0.00, 1017.3,   85.2, -999.0
14-05-2022, 00:19:10,    249,    0.0,    7.6,   0.00,   0.00, 1017.2,   84.8, -999.0
14-05-2022, 00:19:20,    249,    0.0,    7.7,   0.00,   0.00, 1017.2,   84.8, -999.0
14-05-2022, 00:19:30,    249,    0.0,    7.7,   0.00,   0.00, 1017.2,   84.9, -999.0
14-05-2022, 00:19:40,    249,    0.0,    7.6,   0.00,   0.00, 1017.2,   84.9, -999.0
14-05-2022, 00:19:50,    249,    0.0,    7.6,   0.00,   0.00, 1017.2,   84.8, -999.0
14-05-2022, 00:20:00,    249,    0.0,    7.6,   0.00,   0.00, 1017.2,   84.9, -999.0
14-05-2022, 00:20:10,    249,    0.0,    7.7,   0.00,   0.00, 1017.2,   84.9, -999.0
14-05-2022, 00:20:20,    249,    0.0,    7.7,   0.00,   0.00, 1017.2,   84.8, -999.0
14-05-2022, 00:20:30,    249,    0.0,    7.7,   0.00,   0.00, 1017.2,   84.9, -999.0
14-05-2022, 00:20:40,    249,    0.0,    7.6,   0.00,   0.00, 1017.2,   85.0, -999.0
14-05-2022, 00:20:50,    250,    0.0,    7.6,   0.00,   0.00, 1017.3,   84.9, -999.0
14-05-2022, 00:21:00,    253,    0.0,    7.7,   0.00,   0.00, 1017.2,   85.0, -999.0
14-05-2022, 00:21:10,    258,    0.2,    7.7,   0.00,   0.00, 1017.3,   85.1, -999.0
14-05-2022, 00:21:20,    260,    0.4,    7.7,   0.00,   0.00, 1017.3,   85.3, -999.0
14-05-2022, 00:21:29,    259,    0.5,    7.7,   0.00,   0.00, 1017.3,   85.4, -999.0
14-05-2022, 00:21:39,    258,    0.2,    7.6,   0.00,   0.00, 1017.3,   85.5, -999.0
14-05-2022, 00:21:50,    258,    0.3,    7.7,   0.00,   0.00, 1017.3,   85.5, -999.0
14-05-2022, 00:21:59,    258,    0.0,    7.6,   0.00,   0.00, 1017.2,   85.1, -999.0
14-05-2022, 00:22:09,    258,    0.0,    7.6,   0.00,   0.00, 1017.2,   85.1, -999.0
14-05-2022, 00:22:19,    258,    0.0,    7.6,   0.00,   0.00, 1017.2,   85.1, -999.0
14-05-2022, 00:22:29,    258,    0.0,    7.6,   0.00,   0.00, 1017.2,   85.1, -999.0
14-05-2022, 00:22:39,    259,    0.4,    7.5,   0.00,   0.00, 1017.3,   85.4, -999.0
14-05-2022, 00:22:49,    258,    0.2,    7.7,   0.00,   0.00, 1017.3,   85.4, -999.0
14-05-2022, 00:22:59,    258,    0.0,    7.6,   0.00,   0.00, 1017.2,   85.2, -999.0
14-05-2022, 00:23:09,    258,    0.0,    7.6,   0.00,   0.00, 1017.2,   85.2, -999.0
14-05-2022, 00:23:19,    259,    0.0,    7.6,   0.00,   0.00, 1017.2,   85.2, -999.0
14-05-2022, 00:23:29,    260,    0.1,    7.6,   0.00,   0.00, 1017.2,   85.3, -999.0
14-05-2022, 00:23:39,    261,    1.6,    7.7,   0.00,   0.00, 1017.3,   85.6, -999.0
14-05-2022, 00:23:49,    261,    1.3,    7.6,   0.00,   0.00, 1017.3,   85.6, -999.0
14-05-2022, 00:23:59,    260,    0.2,    7.6,   0.00,   0.00, 1017.2,   85.5, -999.0
14-05-2022, 00:24:09,    261,    0.0,    7.6,   0.00,   0.00, 1017.2,   85.2, -999.0
14-05-2022, 00:24:19,    261,    0.0,    7.5,   0.00,   0.00, 1017.2,   85.3, -999.0
14-05-2022, 00:24:29,    261,    0.0,    7.6,   0.00,   0.00, 1017.1,   85.3, -999.0
14-05-2022, 00:24:38,    261,    0.0,    7.6,   0.00,   0.00, 1017.2,   85.3, -999.0
14-05-2022, 00:24:48,    261,    0.0,    7.6,   0.00,   0.00, 1017.2,   85.3, -999.0
14-05-2022, 00:24:59,    261,    0.0,    7.6,   0.00,   0.00, 1017.1,   85.3, -999.0
14-05-2022, 00:25:08,    261,    0.0,    7.5,   0.00,   0.00, 1017.1,   85.2, -999.0
14-05-2022, 00:25:18,    260,    0.1,    7.5,   0.00,   0.00, 1017.2,   85.5, -999.0
14-05-2022, 00:25:28,    261,    0.5,    7.4,   0.00,   0.00, 1017.2,   85.5, -999.0
14-05-2022, 00:25:38,    256,    1.5,    7.6,   0.00,   0.00, 1017.2,   85.6, -999.0
14-05-2022, 00:25:48,    255,    0.9,    7.7,   0.00,   0.00, 1017.3,   85.7, -999.0
14-05-2022, 00:25:58,    255,    0.7,    7.6,   0.00,   0.00, 1017.3,   85.7, -999.0
14-05-2022, 00:26:08,    255,    0.1,    7.6,   0.00,   0.00, 1017.2,   85.6, -999.0
14-05-2022, 00:26:18,    255,    0.0,    7.5,   0.00,   0.00, 1017.1,   85.4, -999.0
14-05-2022, 00:26:28,    255,    0.0,    7.5,   0.00,   0.00, 1017.1,   85.4, -999.0
14-05-2022, 00:26:38,    255,    0.0,    7.5,   0.00,   0.00, 1017.1,   85.5, -999.0
14-05-2022, 00:26:48,    255,    0.0,    7.6,   0.00,   0.00, 1017.1,   85.6, -999.0
14-05-2022, 00:26:58,    256,    0.0,    7.5,   0.00,   0.00, 1017.1,   85.6, -999.0
14-05-2022, 00:27:08,    256,    0.0,    7.5,   0.00,   0.00, 1017.1,   85.6, -999.0
14-05-2022, 00:27:18,    256,    0.0,    7.6,   0.00,   0.00, 1017.1,   85.7, -999.0
14-05-2022, 00:27:28,    256,    0.0,    7.6,   0.00,   0.00, 1017.1,   85.7, -999.0
14-05-2022, 00:27:38,    257,    0.0,    7.5,   0.00,   0.00, 1017.1,   85.6, -999.0
14-05-2022, 00:27:47,    256,    0.7,    7.6,   0.00,   0.00, 1017.2,   86.0, -999.0
14-05-2022, 00:27:58,    256,    0.2,    7.6,   0.00,   0.00, 1017.2,   85.9, -999.0
14-05-2022, 00:28:08,    263,    0.2,    7.6,   0.00,   0.00, 1017.2,   85.9, -999.0
14-05-2022, 00:28:17,    264,    0.2,    7.5,   0.00,   0.00, 1017.2,   85.9, -999.0
14-05-2022, 00:28:27,    267,    0.0,    7.5,   0.00,   0.00, 1017.1,   85.8, -999.0
14-05-2022, 00:28:38,    267,    0.0,    7.5,   0.00,   0.00, 1017.1,   85.7, -999.0
14-05-2022, 00:28:47,    267,    0.0,    7.5,   0.00,   0.00, 1017.1,   85.7, -999.0
14-05-2022, 00:28:57,    268,    0.0,    7.5,   0.00,   0.00, 1017.1,   85.8, -999.0
14-05-2022, 00:29:07,    267,    0.3,    7.5,   0.00,   0.00, 1017.2,   86.0, -999.0
14-05-2022, 00:29:17,    268,    0.0,    7.5,   0.00,   0.00, 1017.1,   85.7, -999.0
14-05-2022, 00:29:27,    268,    0.0,    7.5,   0.00,   0.00, 1017.1,   85.7, -999.0
14-05-2022, 00:29:37,    268,    0.0,    7.5,   0.00,   0.00, 1017.1,   85.8, -999.0
14-05-2022, 00:29:47,    267,    0.0,    7.4,   0.00,   0.00, 1017.1,   85.8, -999.0
14-05-2022, 00:29:57,    268,    0.0,    7.5,   0.00,   0.00, 1017.1,   85.7, -999.0
14-05-2022, 00:30:07,    268,    0.0,    7.5,   0.00,   0.00, 1017.1,   85.7, -999.0
14-05-2022, 00:30:17,    267,    0.0,    7.5,   0.00,   0.00, 1017.1,   85.8, -999.0
14-05-2022, 00:30:27,    268,    0.0,    7.5,   0.00,   0.00, 1017.1,   85.7, -999.0
14-05-2022, 00:30:37,    268,    0.0,    7.5,   0.00,   0.00, 1017.1,   85.8, -999.0
14-05-2022, 00:30:47,    268,    0.0,    7.5,   0.00,   0.00, 1017.1,   85.8, -999.0
14-05-2022, 00:30:56,    268,    0.0,    7.4,   0.00,   0.00, 1017.1,   85.7, -999.0
14-05-2022, 00:31:07,    267,    0.3,    7.5,   0.00,   0.00, 1017.2,   85.9, -999.0
14-05-2022, 00:31:17,    267,    0.4,    7.6,   0.00,   0.00, 1017.3,   86.2, -999.0
14-05-2022, 00:31:26,    267,    0.0,    7.5,   0.00,   0.00, 1017.2,   85.9, -999.0
14-05-2022, 00:31:36,    267,    0.0,    7.4,   0.00,   0.00, 1017.2,   85.8, -999.0
14-05-2022, 00:31:47,    267,    0.0,    7.4,   0.00,   0.00, 1017.1,   85.8, -999.0
14-05-2022, 00:31:56,    267,    0.0,    7.4,   0.00,   0.00, 1017.1,   85.8, -999.0
14-05-2022, 00:32:06,    267,    0.0,    7.4,   0.00,   0.00, 1017.1,   85.7, -999.0
14-05-2022, 00:32:16,    267,    0.0,    7.4,   0.00,   0.00, 1017.1,   85.8, -999.0
14-05-2022, 00:32:26,    267,    0.0,    7.4,   0.00,   0.00, 1017.1,   85.8, -999.0
14-05-2022, 00:32:36,    267,    0.0,    7.4,   0.00,   0.00, 1017.1,   85.9, -999.0
14-05-2022, 00:32:46,    268,    0.5,    7.4,   0.00,   0.00, 1017.2,   86.1, -999.0
14-05-2022, 00:32:56,    267,    0.0,    7.4,   0.00,   0.00, 1017.1,   85.9, -999.0
14-05-2022, 00:33:06,    267,    0.0,    7.4,   0.00,   0.00, 1017.1,   85.8, -999.0
14-05-2022, 00:33:16,    267,    0.0,    7.5,   0.00,   0.00, 1017.1,   86.0, -999.0
14-05-2022, 00:33:26,    267,    0.0,    7.4,   0.00,   0.00, 1017.1,   86.0, -999.0
14-05-2022, 00:33:36,    267,    0.0,    7.3,   0.00,   0.00, 1017.1,   86.0, -999.0
14-05-2022, 00:33:46,    267,    0.0,    7.4,   0.00,   0.00, 1017.1,   86.0, -999.0
14-05-2022, 00:33:56,    267,    0.0,    7.5,   0.00,   0.00, 1017.1,   86.0, -999.0
14-05-2022, 00:34:06,    267,    0.0,    7.5,   0.00,   0.00, 1017.1,   86.0, -999.0
14-05-2022, 00:34:16,    267,    0.0,    7.4,   0.00,   0.00, 1017.1,   86.0, -999.0
14-05-2022, 00:34:26,    267,    0.0,    7.4,   0.00,   0.00, 1017.1,   86.1, -999.0
14-05-2022, 00:34:36,    267,    0.0,    7.5,   0.00,   0.00, 1017.1,   86.2, -999.0
14-05-2022, 00:34:45,    267,    0.0,    7.5,   0.00,   0.00, 1017.1,   86.2, -999.0
14-05-2022, 00:34:56,    267,    0.0,    7.5,   0.00,   0.00, 1017.1,   86.3, -999.0
14-05-2022, 00:35:05,    267,    0.0,    7.3,   0.00,   0.00, 1017.1,   86.2, -999.0
14-05-2022, 00:35:15,    266,    0.0,    7.3,   0.00,   0.00, 1017.1,   86.2, -999.0
14-05-2022, 00:35:25,    266,    0.0,    7.5,   0.00,   0.00, 1017.1,   86.2, -999.0
14-05-2022, 00:35:35,    266,    0.1,    7.5,   0.00,   0.00, 1017.2,   86.4, -999.0
14-05-2022, 00:35:45,    267,    0.0,    7.5,   0.00,   0.00, 1017.1,   86.3, -999.0
14-05-2022, 00:35:55,    266,    0.0,    7.5,   0.00,   0.00, 1017.1,   86.2, -999.0
14-05-2022, 00:36:05,    267,    0.1,    7.5,   0.00,   0.00, 1017.2,   86.5, -999.0
14-05-2022, 00:36:15,    267,    0.0,    7.5,   0.00,   0.00, 1017.1,   86.4, -999.0
14-05-2022, 00:36:25,    267,    0.0,    7.4,   0.00,   0.00, 1017.1,   86.3, -999.0
14-05-2022, 00:36:35,    267,    0.0,    7.5,   0.00,   0.00, 1017.2,   86.3, -999.0
14-05-2022, 00:36:45,    267,    0.2,    7.5,   0.00,   0.00, 1017.2,   86.6, -999.0
14-05-2022, 00:36:55,    267,    0.1,    7.5,   0.00,   0.00, 1017.2,   86.4, -999.0
14-05-2022, 00:37:05,    267,    0.0,    7.4,   0.00,   0.00, 1017.1,   86.3, -999.0
14-05-2022, 00:37:15,    267,    0.0,    7.4,   0.00,   0.00, 1017.1,   86.3, -999.0
14-05-2022, 00:37:25,    267,    0.0,    7.4,   0.00,   0.00, 1017.1,   86.3, -999.0
14-05-2022, 00:37:35,    267,    0.0,    7.4,   0.00,   0.00, 1017.1,   86.4, -999.0
14-05-2022, 00:37:45,    267,    0.0,    7.3,   0.00,   0.00, 1017.1,   86.4, -999.0
14-05-2022, 00:37:54,    268,    0.1,    7.4,   0.00,   0.00, 1017.1,   86.3, -999.0
14-05-2022, 00:38:05,    267,    0.6,    7.5,   0.00,   0.00, 1017.2,   86.7, -999.0
14-05-2022, 00:38:15,    267,    0.1,    7.4,   0.00,   0.00, 1017.1,   86.5, -999.0
14-05-2022, 00:38:24,    267,    0.1,    7.5,   0.00,   0.00, 1017.1,   86.4, -999.0
14-05-2022, 00:38:34,    266,    0.5,    7.4,   0.00,   0.00, 1017.2,   86.7, -999.0
14-05-2022, 00:38:44,    267,    0.4,    7.5,   0.00,   0.00, 1017.2,   86.8, -999.0
14-05-2022, 00:38:54,    267,    0.3,    7.4,   0.00,   0.00, 1017.2,   86.7, -999.0
14-05-2022, 00:39:04,    267,    0.0,    7.4,   0.00,   0.00, 1017.1,   86.6, -999.0
14-05-2022, 00:39:14,    242,    1.1,    7.4,   0.00,   0.00, 1017.2,   86.8, -999.0
14-05-2022, 00:39:24,    241,    0.1,    7.4,   0.00,   0.00, 1017.1,   86.6, -999.0
14-05-2022, 00:39:34,    241,    0.0,    7.4,   0.00,   0.00, 1017.1,   86.4, -999.0
14-05-2022, 00:39:44,    241,    0.0,    7.4,   0.00,   0.00, 1017.1,   86.6, -999.0
14-05-2022, 00:39:54,    242,    0.0,    7.4,   0.00,   0.00, 1017.1,   86.6, -999.0
14-05-2022, 00:40:04,    242,    0.0,    7.3,   0.00,   0.00, 1017.1,   86.5, -999.0
14-05-2022, 00:40:14,    242,    0.0,    7.4,   0.00,   0.00, 1017.1,   86.5, -999.0
14-05-2022, 00:40:24,    243,    0.0,    7.4,   0.00,   0.00, 1017.1,   86.5, -999.0
14-05-2022, 00:40:34,    242,    0.2,    7.4,   0.00,   0.00, 1017.1,   86.8, -999.0
14-05-2022, 00:40:44,    242,    0.0,    7.4,   0.00,   0.00, 1017.0,   86.8, -999.0
14-05-2022, 00:40:54,    239,    0.0,    7.4,   0.00,   0.00, 1017.1,   86.7, -999.0
14-05-2022, 00:41:03,    239,    0.0,    7.5,   0.00,   0.00, 1017.1,   86.9, -999.0
14-05-2022, 00:41:14,    240,    0.1,    7.4,   0.00,   0.00, 1017.2,   87.0, -999.0
14-05-2022, 00:41:24,    240,    0.1,    7.5,   0.00,   0.00, 1017.1,   86.9, -999.0
14-05-2022, 00:41:33,    240,    0.0,    7.4,   0.00,   0.00, 1017.1,   86.8, -999.0
14-05-2022, 00:41:43,    239,    0.0,    7.4,   0.00,   0.00, 1017.1,   86.8, -999.0
14-05-2022, 00:41:53,    239,    0.0,    7.4,   0.00,   0.00, 1017.1,   86.8, -999.0
14-05-2022, 00:42:03,    240,    0.0,    7.4,   0.00,   0.00, 1017.1,   86.8, -999.0
14-05-2022, 00:42:13,    240,    0.0,    7.3,   0.00,   0.00, 1017.1,   86.8, -999.0
14-05-2022, 00:42:23,    240,    0.0,    7.5,   0.00,   0.00, 1017.0,   86.8, -999.0
14-05-2022, 00:42:33,    240,    0.0,    7.4,   0.00,   0.00, 1017.1,   86.9, -999.0
14-05-2022, 00:42:43,    240,    0.0,    7.4,   0.00,   0.00, 1017.1,   86.8, -999.0
14-05-2022, 00:42:53,    240,    0.0,    7.4,   0.00,   0.00, 1017.1,   86.8, -999.0
14-05-2022, 00:43:03,    240,    0.0,    7.4,   0.00,   0.00, 1017.1,   86.8, -999.0
14-05-2022, 00:43:13,    240,    0.0,    7.4,   0.00,   0.00, 1017.1,   86.8, -999.0
14-05-2022, 00:43:23,    240,    0.0,    7.4,   0.00,   0.00, 1017.1,   86.8, -999.0
14-05-2022, 00:43:33,    240,    0.0,    7.4,   0.00,   0.00, 1017.1,   86.8, -999.0
14-05-2022, 00:43:43,    240,    0.0,    7.4,   0.00,   0.00, 1017.1,   86.9, -999.0
14-05-2022, 00:43:53,    240,    0.0,    7.4,   0.00,   0.00, 1017.1,   86.8, -999.0
14-05-2022, 00:44:03,    240,    0.0,    7.4,   0.00,   0.00, 1017.1,   86.8, -999.0
14-05-2022, 00:44:12,    240,    0.0,    7.4,   0.00,   0.00, 1017.1,   86.9, -999.0
14-05-2022, 00:44:23,    240,    0.0,    7.4,   0.00,   0.00, 1017.1,   86.9, -999.0
14-05-2022, 00:44:33,    240,    0.0,    7.4,   0.00,   0.00, 1017.1,   86.8, -999.0
14-05-2022, 00:44:42,    240,    0.0,    7.4,   0.00,   0.00, 1017.1,   86.9, -999.0
14-05-2022, 00:44:52,    239,    0.0,    7.4,   0.00,   0.00, 1017.1,   86.9, -999.0
14-05-2022, 00:45:02,    241,    0.3,    7.4,   0.00,   0.00, 1017.2,   87.3, -999.0
14-05-2022, 00:45:14,    240,    0.3,    7.4,   0.00,   0.00, 1017.2,   87.2, -999.0
14-05-2022, 00:45:22,    241,    0.0,    7.4,   0.00,   0.00, 1017.1,   87.0, -999.0
14-05-2022, 00:45:32,    240,    0.0,    7.3,   0.00,   0.00, 1017.1,   86.9, -999.0
14-05-2022, 00:45:42,    240,    0.0,    7.3,   0.00,   0.00, 1017.1,   86.9, -999.0
14-05-2022, 00:45:52,    240,    0.0,    7.4,   0.00,   0.00, 1017.1,   87.1, -999.0
14-05-2022, 00:46:02,    241,    0.0,    7.4,   0.00,   0.00, 1017.1,   87.0, -999.0
14-05-2022, 00:46:12,    241,    0.0,    7.4,   0.00,   0.00, 1017.1,   87.0, -999.0
14-05-2022, 00:46:22,    241,    0.0,    7.4,   0.00,   0.00, 1017.1,   87.0, -999.0
14-05-2022, 00:46:32,    247,    0.3,    7.5,   0.00,   0.00, 1017.2,   87.3, -999.0
14-05-2022, 00:46:42,    247,    0.5,    7.5,   0.00,   0.00, 1017.2,   87.5, -999.0